Date String (YYYY-MM-DD hh:mm:ss) UTC,Instrument flags,absolute air pressure of the measurement (hPa),sample flow rate (lpm),inlet stack bypass flow (lpm),air temperature of the measurement (°C),ambient temperature measured by the external sensor (°C),aerosol sample conditioner tube jacket temperature (°C),OPC LED temperature (°C),internal box temperature (°C),relative humidity of the measurement (%),span deviation,mass concentration of particles derived from Lorenz-Mie calculation of OPC scattering (μg/m³),mass concentration of particles derived from Lorenz-Mie calculation of OPC scattering (μg/m³),mass concentration of particles derived from Lorenz-Mie calculation of OPC scattering (μg/m³)
DateTimeUTC,F1_M11,P_M11,Q1_M11,Q2_M11,T1_M11,T2_M11,T3_M11,T4_M11,T5_M11,U1_M11,ZSPAN_M11,X0_M11,X2_M11,X1_M11
2023-12-17 14:00:00,SystemResetWarning,0831.3,5.00,000.00,022.7,021.7,000.0,031.0,024.0,7.6,0000.0,0001.70,0000.76,0000.39
2023-12-17 14:01:00,SystemResetWarning,0831.3,5.00,000.00,022.7,021.7,000.0,031.0,024.0,7.1,0000.0,0001.73,0000.76,0000.40
2023-12-17 14:02:00,SystemResetWarning,0831.3,5.00,000.00,022.7,021.7,000.0,031.0,024.0,6.9,0000.0,0001.72,0000.74,0000.41
2023-12-17 14:03:00,SystemResetWarning,0831.4,5.00,000.00,022.7,021.7,000.0,031.0,024.0,6.6,0000.0,0001.58,0000.69,0000.42
2023-12-17 14:04:00,SystemResetWarning,0831.3,5.00,000.00,022.7,021.7,000.0,031.0,024.0,6.6,0000.0,0001.60,0000.70,0000.43
2023-12-17 14:05:00,SystemResetWarning,0831.4,5.00,000.00,022.7,021.7,000.0,030.9,024.0,6.8,0000.0,0001.67,0000.72,0000.43
2023-12-17 14:06:00,SystemResetWarning,0831.4,5.00,000.00,022.7,021.7,000.0,031.0,024.0,7.0,0000.0,0001.71,0000.73,0000.43
2023-12-17 14:07:00,SystemResetWarning,0831.4,5.00,000.00,022.7,021.7,000.0,031.0,024.0,7.1,0000.0,0001.59,0000.69,0000.42
2023-12-17 14:08:00,SystemResetWarning,0831.4,5.00,000.00,022.7,021.7,000.0,031.0,024.0,7.2,0000.0,0001.49,0000.65,0000.41
2023-12-17 14:09:00,SystemResetWarning,0831.4,5.00,000.00,022.7,021.6,000.0,030.9,024.0,7.3,0000.0,0001.43,0000.63,0000.40
2023-12-17 14:10:00,SystemResetWarning,0831.5,5.00,000.00,022.6,021.6,000.0,030.9,024.0,7.3,0000.0,0001.24,0000.61,0000.40
2023-12-17 14:11:00,SystemResetWarning,0831.5,5.00,000.00,022.6,021.6,000.0,030.9,023.9,7.3,0000.0,0001.22,0000.61,0000.40
2023-12-17 14:12:00,SystemResetWarning,0831.5,4.99,000.00,022.6,021.6,000.0,030.9,023.9,7.5,0000.0,0001.18,0000.62,0000.40
2023-12-17 14:13:00,SystemResetWarning,0831.6,4.99,000.00,022.6,021.6,000.0,030.9,023.9,7.6,0000.0,0001.07,0000.62,0000.41
2023-12-17 14:14:00,SystemResetWarning,0831.6,5.00,000.00,022.6,021.5,000.0,030.9,023.9,7.7,0000.0,0001.17,0000.66,0000.41
2023-12-17 14:15:00,SystemResetWarning,0831.7,5.00,000.00,022.6,021.5,000.0,030.9,023.9,7.8,0000.0,0001.22,0000.69,0000.42
2023-12-17 14:16:00,SystemResetWarning,0831.8,5.00,000.00,022.6,021.5,000.0,030.9,023.8,7.8,0000.0,0001.53,0000.68,0000.43
2023-12-17 14:17:00,SystemResetWarning,0831.8,5.00,000.00,022.6,021.5,000.0,030.9,023.8,7.9,0000.0,0002.18,0000.71,0000.45
2023-12-17 14:18:00,SystemResetWarning,0831.7,5.00,000.00,022.5,021.5,000.0,030.9,023.8,7.7,0000.0,0002.31,0000.77,0000.47
2023-12-17 14:19:00,SystemResetWarning,0832.0,5.00,000.00,022.5,021.4,000.0,030.9,023.8,7.6,0000.0,0002.43,0000.81,0000.50
2023-12-17 14:20:00,SystemResetWarning,0832.0,5.00,000.00,022.5,021.4,000.0,030.9,023.8,7.7,0000.0,0002.60,0000.86,0000.51
2023-12-17 14:21:00,SystemResetWarning,0831.8,5.01,000.00,022.5,021.5,000.0,030.9,023.8,7.7,0000.0,0003.87,0000.90,0000.53
2023-12-17 14:22:00,SystemResetWarning,0831.8,5.01,000.00,022.5,021.4,000.0,030.9,023.8,7.6,0000.0,0004.11,0000.91,0000.54
2023-12-17 14:23:00,SystemResetWarning,0831.9,5.01,000.00,022.5,021.4,000.0,030.9,023.8,7.6,0000.0,0004.43,0000.96,0000.55
2023-12-17 14:24:00,SystemResetWarning,0831.9,5.00,000.00,022.5,021.4,000.0,030.8,023.8,7.7,0000.0,0004.46,0000.98,0000.56
2023-12-17 14:25:00,SystemResetWarning,0831.9,4.99,000.00,022.5,021.4,000.0,030.8,023.8,7.7,0000.0,0004.45,0000.98,0000.57
2023-12-17 14:26:00,SystemResetWarning,0831.9,5.00,000.00,022.5,021.4,000.0,030.8,023.7,7.7,0000.0,0004.61,0000.96,0000.57
2023-12-17 14:27:00,SystemResetWarning,0831.8,5.01,000.00,022.4,021.4,000.0,030.8,023.7,7.7,0000.0,0006.37,0001.03,0000.59
2023-12-17 14:28:00,SystemResetWarning,0832.0,5.00,000.00,022.4,021.4,000.0,030.8,023.7,7.7,0000.0,0005.91,0001.02,0000.60
2023-12-17 14:29:00,SystemResetWarning,0832.2,5.00,000.00,022.4,021.4,000.0,030.8,023.8,7.7,0000.0,0005.85,0001.01,0000.61
2023-12-17 14:30:00,SystemResetWarning,0832.2,5.01,000.00,022.4,021.4,000.0,030.8,023.8,7.6,0000.0,0005.84,0001.02,0000.61
2023-12-17 14:31:00,SystemResetWarning,0831.8,5.01,000.00,022.4,021.4,000.0,030.8,023.8,7.6,0000.0,0005.71,0001.01,0000.62
2023-12-17 14:32:00,SystemResetWarning,0831.9,5.01,000.00,022.5,021.4,000.0,030.8,023.8,7.5,0000.0,0004.80,0000.99,0000.63
2023-12-17 14:33:00,SystemResetWarning,0831.9,5.00,000.00,022.5,021.5,000.0,030.8,023.8,7.6,0000.0,0004.27,0001.00,0000.63
2023-12-17 14:34:00,SystemResetWarning,0832.0,4.99,000.00,022.5,021.5,000.0,030.8,023.8,7.7,0000.0,0004.10,0000.99,0000.64
2023-12-17 14:35:00,SystemResetWarning,0832.0,5.00,000.00,022.5,021.5,000.0,030.8,023.8,7.7,0000.0,0004.03,0000.98,0000.64
2023-12-17 14:36:00,SystemResetWarning,0832.1,5.01,000.00,022.5,021.5,000.0,030.8,023.8,7.7,0000.0,0004.00,0000.97,0000.65
2023-12-17 14:37:00,SystemResetWarning,0832.0,5.01,000.00,022.5,021.5,000.0,030.8,023.9,7.7,0000.0,0004.13,0001.00,0000.66
2023-12-17 14:38:00,SystemResetWarning,0832.1,5.01,000.00,022.5,021.5,000.0,030.8,023.9,7.7,0000.0,0002.64,0000.98,0000.66
2023-12-17 14:39:00,SystemResetWarning,0832.1,4.99,000.00,022.5,021.6,000.0,030.8,023.9,7.7,0000.0,0001.64,0000.97,0000.66
2023-12-17 14:40:00,SystemResetWarning,0832.1,4.99,000.00,022.6,021.6,000.0,030.8,023.9,7.6,0000.0,0001.76,0001.01,0000.67
2023-12-17 14:41:00,SystemResetWarning,0832.2,5.00,000.00,022.6,021.6,000.0,030.8,023.9,7.6,0000.0,0001.93,0001.04,0000.68
2023-12-17 14:42:00,SystemResetWarning,0832.2,4.99,000.00,022.6,021.6,000.0,030.8,023.9,7.6,0000.0,0001.97,0001.05,0000.69
2023-12-17 14:43:00,SystemResetWarning,0832.2,5.00,000.00,022.6,021.6,000.0,030.8,024.0,7.7,0000.0,0002.06,0001.07,0000.69
2023-12-17 14:44:00,SystemResetWarning,0832.2,5.01,000.00,022.6,021.6,000.0,030.8,024.0,7.7,0000.0,0002.00,0001.05,0000.70
2023-12-17 14:45:00,SystemResetWarning,0832.2,5.01,000.00,022.6,021.6,000.0,030.8,024.0,7.8,0000.0,0002.03,0001.04,0000.71
2023-12-17 14:46:00,SystemResetWarning,0832.2,5.00,000.00,022.6,021.7,000.0,030.8,024.0,7.6,0000.0,0002.12,0001.06,0000.72
2023-12-17 14:47:00,SystemResetWarning,0832.2,5.00,000.00,022.6,021.7,000.0,030.8,024.0,7.7,0000.0,0002.61,0001.10,0000.72
2023-12-17 14:48:00,SystemResetWarning,0832.2,4.99,000.00,022.6,021.7,000.0,030.8,024.0,7.6,0000.0,0002.61,0001.08,0000.72
2023-12-17 14:49:00,SystemResetWarning,0832.2,5.00,000.00,022.6,021.7,000.0,030.8,024.0,7.8,0000.0,0003.42,0001.06,0000.72
2023-12-17 14:50:00,SystemResetWarning,0832.2,5.01,000.00,022.6,021.7,000.0,030.8,024.0,7.9,0000.0,0003.41,0001.06,0000.74
2023-12-17 14:51:00,SystemResetWarning,0832.2,5.01,000.00,022.6,021.7,000.0,030.8,024.0,7.9,0000.0,0003.38,0001.08,0000.76
2023-12-17 14:52:00,SystemResetWarning,0832.2,5.01,000.00,022.6,021.7,000.0,030.8,024.0,7.8,0000.0,0003.19,0001.04,0000.77
2023-12-17 14:53:00,SystemResetWarning,0832.2,4.99,000.00,022.7,021.7,000.0,030.9,024.0,7.8,0000.0,0003.18,0001.04,0000.78
2023-12-17 14:54:00,SystemResetWarning,0832.2,4.99,000.00,022.7,021.7,000.0,030.9,024.0,7.8,0000.0,0003.44,0001.04,0000.81
2023-12-17 14:55:00,SystemResetWarning,0832.2,5.01,000.00,022.7,021.7,000.0,030.9,024.1,7.8,0000.0,0003.41,0001.04,0000.82
2023-12-17 14:56:00,SystemResetWarning,0832.2,5.01,000.00,022.7,021.7,000.0,030.9,024.1,7.9,0000.0,0003.31,0001.04,0000.84
2023-12-17 14:57:00,SystemResetWarning,0832.2,5.01,000.00,022.7,021.8,000.0,030.9,024.1,7.9,0000.0,0003.25,0001.06,0000.85
2023-12-17 14:58:00,SystemResetWarning,0832.2,4.99,000.00,022.7,021.8,000.0,030.9,024.1,7.9,0000.0,0002.83,0001.05,0000.87
2023-12-17 14:59:00,SystemResetWarning,0832.2,5.00,000.00,022.7,021.8,000.0,030.9,024.1,7.9,0000.0,0002.79,0001.06,0000.89
